Boonville, MO

12:48 PM CST on February 25, 2017 (GMT -0600)
Viertel Memorial

Weather History for KVER - January, 2014

Change the Weather History Date:

Sunday, January 12, 2014

  Actual Average Record
Temperature  
Mean Temperature 48 °F -  
Max Temperature 65 °F 32 °F 65 °F (1960)
Min Temperature 30 °F 16 °F -10 °F (1974)
Degree Days  
Heating Degree Days 18    
Moisture  
Dew Point 29 °F    
Average Humidity 57    
Maximum Humidity 94    
Minimum Humidity 27    
Precipitation  
Precipitation 0.00 in - - ()
Sea Level Pressure  
Sea Level Pressure 29.70 in    
Wind  
Wind Speed 8 mph (South)    
Max Wind Speed 16 mph    
Max Gust Speed 28 mph    
Visibility 10 miles    
Events      
Averages and records for this station are not official NWS values.
T = Trace of Precipitation, MM = Missing Value Source: NWS Daily Summary

Daily Weather History Graph

Daily Weather History Graph

Search for Another Location

Airport or City:

Trip Planner

Search our weather history database for the weather conditions in past years. The results will help you decide how hot, cold, wet, or windy it might be!

Date:

Astronomy

Jan. 12, 2014 Rise Set
Actual Time 7:28 AM CST 5:09 PM CST
Civil Twilight 6:59 AM CST 5:39 PM CST
Nautical Twilight 6:26 AM CST 6:12 PM CST
Astronomical Twilight 5:54 AM CST 6:44 PM CST
Moon 2:37 PM CST (1/12) 4:28 AM CST (1/12)
Length of Visible Light 10h 39m
Length of Day
9h 40m
Waxing Gibbous, 90% of the Moon is Illuminated
Jan 12
Waxing Gibbous
Jan 15
Full
Jan 23
Last Quarter
Jan 30
New
Feb 6
First Quarter

Hourly Weather History & Observations

Time (CST) Temp. Windchill Dew Point Humidity Pressure Visibility Wind Dir Wind Speed Gust Speed Precip Events Conditions
12:15 AM 31.8 °F 28.5 °F 30.0 °F 93% 29.93 in 10.0 mi South 3.5 mph - N/A   Clear
12:35 AM 31.6 °F 27.0 °F 30.0 °F 94% 29.92 in 10.0 mi South 4.6 mph - N/A   Clear
12:55 AM 31.5 °F 25.8 °F 29.8 °F 94% 29.90 in 10.0 mi South 5.8 mph - N/A   Clear
1:15 AM 31.5 °F 25.8 °F 29.8 °F 94% 29.89 in 10.0 mi South 5.8 mph - N/A   Clear
1:35 AM 30.9 °F 25.2 °F 29.5 °F 94% 29.88 in 10.0 mi South 5.8 mph - N/A   Clear
1:55 AM 31.5 °F 25.8 °F 29.8 °F 94% 29.88 in 10.0 mi South 5.8 mph - N/A   Clear
2:15 AM 31.5 °F 25.8 °F 29.7 °F 93% 29.88 in 10.0 mi South 5.8 mph - N/A   Clear
2:35 AM 31.8 °F 26.2 °F 29.8 °F 92% 29.88 in 10.0 mi SSE 5.8 mph - N/A   Clear
2:55 AM 31.5 °F 25.8 °F 29.3 °F 92% 29.88 in 10.0 mi South 5.8 mph - N/A   Clear
3:15 AM 30.9 °F 24.3 °F 29.1 °F 93% 29.88 in 10.0 mi South 6.9 mph - N/A   Clear
3:35 AM 31.3 °F 23.9 °F 29.3 °F 92% 29.88 in 10.0 mi SSE 8.1 mph - N/A   Clear
3:55 AM 31.1 °F 24.5 °F 29.1 °F 92% 29.86 in 10.0 mi South 6.9 mph - N/A   Clear
4:15 AM 31.5 °F 24.9 °F 29.7 °F 93% 29.86 in 10.0 mi South 6.9 mph - N/A   Clear
4:35 AM 32.0 °F 24.8 °F 29.8 °F 92% 29.86 in 10.0 mi South 8.1 mph - N/A   Clear
4:55 AM 31.3 °F 24.7 °F 29.3 °F 92% 29.85 in 10.0 mi SSE 6.9 mph - N/A   Clear
5:15 AM 31.6 °F 26.0 °F 29.7 °F 92% 29.85 in 10.0 mi SSE 5.8 mph - N/A   Clear
5:35 AM 31.8 °F 25.4 °F 29.7 °F 92% 29.84 in 10.0 mi SSE 6.9 mph - N/A   Clear
5:55 AM 32.0 °F 24.8 °F 29.7 °F 91% 29.83 in 10.0 mi SSE 8.1 mph - N/A   Clear
6:15 AM 32.2 °F 25.8 °F 29.8 °F 91% 29.83 in 10.0 mi SSE 6.9 mph - N/A   Clear
6:35 AM 32.5 °F 24.8 °F 29.3 °F 88% 29.83 in 10.0 mi SSE 9.2 mph - N/A   Clear
6:55 AM 32.7 °F 25.0 °F 28.4 °F 84% 29.83 in 10.0 mi SSE 9.2 mph - N/A   Clear
7:15 AM 33.3 °F 25.1 °F 28.2 °F 82% 29.82 in 10.0 mi SSE 10.4 mph - N/A   Clear
7:35 AM 34.5 °F 26.2 °F 28.0 °F 77% 29.80 in 10.0 mi SSE 11.5 mph - N/A   Clear
7:55 AM 36.0 °F 28.0 °F 28.2 °F 73% 29.80 in 10.0 mi South 11.5 mph - N/A   Clear
8:15 AM 37.6 °F 30.0 °F 28.4 °F 69% 29.81 in 10.0 mi South 11.5 mph - N/A   Clear
8:35 AM 39.2 °F 32.0 °F 28.2 °F 65% 29.80 in 10.0 mi South 11.5 mph - N/A   Clear
8:55 AM 40.8 °F 34.1 °F 28.2 °F 61% 29.79 in 10.0 mi South 11.5 mph - N/A   Clear
9:15 AM 42.6 °F 35.6 °F 28.4 °F 57% 29.78 in 10.0 mi South 13.8 mph - N/A   Clear
9:35 AM 44.4 °F 38.6 °F 28.2 °F 53% 29.77 in 10.0 mi South 11.5 mph 20.7 mph N/A   Clear
9:55 AM 46.0 °F 40.2 °F 28.2 °F 50% 29.75 in 10.0 mi South 12.7 mph 17.3 mph N/A   Clear
10:15 AM 47.7 °F - 28.0 °F 47% 29.74 in 10.0 mi South 11.5 mph 21.9 mph N/A   Clear
10:35 AM 49.5 °F - 28.8 °F 45% 29.73 in 10.0 mi South 12.7 mph 19.6 mph N/A   Clear
10:55 AM 50.9 °F - 29.3 °F 43% 29.70 in 10.0 mi South 16.1 mph 24.2 mph N/A   Clear
11:15 AM 52.9 °F - 30.4 °F 42% 29.68 in 10.0 mi South 13.8 mph 18.4 mph N/A   Clear
11:35 AM 55.0 °F - 31.5 °F 41% 29.66 in 10.0 mi South 13.8 mph - N/A   Clear
11:55 AM 57.7 °F - 31.5 °F 37% 29.63 in 10.0 mi South 15.0 mph 18.4 mph N/A   Clear
12:15 PM 60.6 °F - 30.6 °F 32% 29.61 in 10.0 mi South 16.1 mph 24.2 mph N/A   Clear
12:35 PM 62.6 °F - 30.4 °F 30% 29.59 in 10.0 mi South 15.0 mph 25.3 mph N/A   Clear
12:55 PM 64.0 °F - 30.0 °F 28% 29.57 in 10.0 mi South 15.0 mph 25.3 mph N/A   Clear
1:15 PM 64.6 °F - 29.8 °F 27% 29.56 in 10.0 mi SSW 16.1 mph 27.6 mph N/A   Clear
1:35 PM 64.4 °F - 30.0 °F 28% 29.55 in 10.0 mi SSW 15.0 mph 23.0 mph N/A   Clear
1:55 PM 64.4 °F - 30.7 °F 28% 29.55 in 10.0 mi SSW 11.5 mph 21.9 mph N/A   Clear
2:15 PM 64.8 °F - 30.9 °F 28% 29.55 in 10.0 mi SSW 9.2 mph 18.4 mph N/A   Clear
2:35 PM 65.1 °F - 31.3 °F 28% 29.54 in 10.0 mi South 11.5 mph 23.0 mph N/A   Clear
2:55 PM 65.5 °F - 30.7 °F 27% 29.53 in 10.0 mi SSW 12.7 mph 20.7 mph N/A   Clear
3:15 PM 65.7 °F - 31.1 °F 27% 29.53 in 10.0 mi SSW 11.5 mph 18.4 mph N/A   Clear
3:35 PM 65.5 °F - 31.1 °F 28% 29.53 in 10.0 mi SSW 9.2 mph - N/A   Clear
3:55 PM 65.1 °F - 32.0 °F 29% 29.54 in 10.0 mi SSW 8.1 mph - N/A   Clear
4:15 PM 64.4 °F - 31.6 °F 29% 29.55 in 10.0 mi SSW 8.1 mph - N/A   Clear
4:35 PM 64.0 °F - 30.2 °F 28% 29.55 in 10.0 mi SW 6.9 mph - N/A   Clear
4:55 PM 62.8 °F - 29.3 °F 28% 29.56 in 10.0 mi SSW 3.5 mph - N/A   Clear
5:15 PM 60.4 °F - 29.5 °F 31% 29.56 in 10.0 mi SW 4.6 mph - N/A   Clear
5:35 PM 59.7 °F - 28.8 °F 31% 29.57 in 10.0 mi SSW 4.6 mph - N/A   Clear
5:55 PM 58.3 °F - 28.4 °F 32% 29.58 in 10.0 mi SSW 3.5 mph - N/A   Clear
6:15 PM 57.2 °F - 28.4 °F 33% 29.60 in 10.0 mi SSW 3.5 mph - N/A   Clear
6:35 PM 55.8 °F - 27.9 °F 34% 29.60 in 10.0 mi South 3.5 mph - N/A   Clear
6:55 PM 53.8 °F - 27.7 °F 37% 29.60 in 10.0 mi SSE 6.9 mph - N/A   Clear
7:15 PM 51.6 °F - 28.4 °F 41% 29.60 in 10.0 mi South 4.6 mph - N/A   Clear
7:35 PM 50.5 °F - 28.6 °F 43% 29.60 in 10.0 mi South 6.9 mph - N/A   Clear
7:55 PM 48.7 °F - 29.1 °F 47% 29.60 in 10.0 mi South 8.1 mph - N/A   Clear
8:15 PM 48.4 °F - 29.1 °F 47% 29.59 in 10.0 mi SSE 9.2 mph - N/A   Clear
8:35 PM 48.7 °F - 29.1 °F 47% 29.59 in 10.0 mi SSE 9.2 mph - N/A   Clear
8:55 PM 49.6 °F - 29.1 °F 45% 29.58 in 10.0 mi SSE 10.4 mph - N/A   Clear
9:15 PM 50.0 °F - 29.5 °F 45% 29.59 in 10.0 mi South 10.4 mph - N/A   Clear
9:35 PM 49.8 °F - 29.7 °F 46% 29.58 in 10.0 mi SSE 11.5 mph - N/A   Clear
9:55 PM 49.5 °F - 29.8 °F 47% 29.59 in 10.0 mi South 8.1 mph - N/A   Clear
10:15 PM 49.1 °F - 29.8 °F 47% 29.58 in 10.0 mi South 6.9 mph - N/A   Clear
10:35 PM 49.1 °F - 29.5 °F 47% 29.59 in 10.0 mi South 8.1 mph - N/A   Clear
10:55 PM 48.4 °F - 29.3 °F 48% 29.59 in 10.0 mi South 5.8 mph - N/A   Clear
11:15 PM 48.9 °F - 29.1 °F 46% 29.59 in 10.0 mi South 5.8 mph - N/A   Clear
11:35 PM 48.6 °F - 29.3 °F 47% 29.59 in 10.0 mi South 4.6 mph - N/A   Clear
11:55 PM 46.9 °F - 29.3 °F 50% 29.59 in 10.0 mi South 4.6 mph - N/A   Clear